Location: Arbon
(43.0005°N, 0.7472°E)
Time: 11:38:56
(UTC+00:00)

Cosmos 921 Rocket - Pass Details

Date: 22 April 2026
Orbit: 563 x 620 km, 75.8° (Epoch: 15 May)

Event Time Altitude Azimuth Distance (km) Brightness Sun altitude
Rises 22:01:22 0° 337° (NNW) 2,883 7.7 -28.7°
Reaches altitude 10° 22:03:41 10° 332° (NNW) 1,966 6.6 -28.9°
Enters shadow 22:06:43 38° 304° (NW) 928 4.3 -29.2°
